Location: Al Mulaqqa?ah
(24.1833°N, 32.8833°E)
Time: 18:19:21
(UTC+00:00)

CENTAUR R/B - Pass Details

Date: 26 September 2021
Orbit: 729 x 1458 km, 63.5° (Epoch: 15 October)

Event Time Altitude Azimuth Distance (km) Brightness Sun altitude
Rises 16:28:43 0° 190° (S) 3,171 5.3 -11.8°
Reaches altitude 10° 16:31:03 10° 183° (S) 2,291 4.5 -12.3°
Maximum altitude 16:35:59 45° 111° (ESE) 1,120 2.4 -13.5°
Drops below altitude 10° 16:41:38 10° 41° (NE) 2,624 4.4 -14.7°
Sets 16:44:29 0° 35° (NE) 3,685 5.2 -15.4°
